When you browse on this site, cookies collect data to enhance your experience and personalize the content and advertising you see.
Visit our Privacy Policy to learn more. By continuing to use the site, you agree to this use of cookies and data.
  • In Belgien
  • Länderverzeichnis
  • Für 7 Tage
  • Wassertemperatur
  • Wetterkarte
  • Widgets
  • user-avatar
    Anmelden

    Stündliche Wetter Maun

    Heute, 6 Juni, Samstag

    Zeit Temperatur Niederschläge Wind Luftdruck Luftfeuchtigkeit
    00:00 +16°C° 0 mm 3 m/S 685 mmHg 44%
    01:00 +14°C° 0 mm 3 m/S 685 mmHg 46%
    02:00 +13°C° 0 mm 3 m/S 685 mmHg 50%
    03:00 +13°C° 0 mm 3 m/S 685 mmHg 60%
    04:00 +12°C° 0 mm 3 m/S 685 mmHg 69%
    05:00 +11°C° 0 mm 3 m/S 685 mmHg 79%
    06:00 +11°C° 0 mm 3 m/S 685 mmHg 78%
    07:00 +12°C° 0 mm 3 m/S 686 mmHg 77%
    08:00 +12°C° 0 mm 3 m/S 686 mmHg 76%
    09:00 +17°C° 0 mm 3 m/S 687 mmHg 62%
    10:00 +20°C° 0 mm 3 m/S 687 mmHg 48%
    11:00 +25°C° 0 mm 3 m/S 688 mmHg 34%
    12:00 +26°C° 0 mm 3 m/S 687 mmHg 29%
    13:00 +27°C° 0 mm 3 m/S 687 mmHg 24%
    14:00 +28°C° 0 mm 3 m/S 686 mmHg 19%
    15:00 +27°C° 0 mm 3 m/S 686 mmHg 20%
    16:00 +27°C° 0 mm 4 m/S 685 mmHg 21%
    17:00 +26°C° 0 mm 4 m/S 685 mmHg 22%
    18:00 +22°C° 0 mm 4 m/S 685 mmHg 27%
    19:00 +20°C° 0 mm 3 m/S 685 mmHg 32%
    20:00 +17°C° 0 mm 3 m/S 685 mmHg 38%
    21:00 +16°C° 0 mm 3 m/S 685 mmHg 38%
    22:00 +16°C° 0 mm 3 m/S 685 mmHg 39%
    23:00 +15°C° 0 mm 2 m/S 685 mmHg 40%

    Morgen, 7 Juni, Sonntag

    Zeit Temperatur Niederschläge Wind Luftdruck Luftfeuchtigkeit
    00:00 +13°C° 0 mm 3 m/S 685 mmHg 42%
    01:00 +12°C° 0 mm 3 m/S 685 mmHg 44%
    02:00 +12°C° 0 mm 3 m/S 685 mmHg 46%
    03:00 +11°C° 0 mm 3 m/S 685 mmHg 52%
    04:00 +10°C° 0 mm 3 m/S 685 mmHg 58%
    05:00 +10°C° 0 mm 3 m/S 685 mmHg 64%
    06:00 +10°C° 0 mm 3 m/S 685 mmHg 64%
    07:00 +11°C° 0 mm 3 m/S 685 mmHg 64%
    08:00 +11°C° 0 mm 3 m/S 686 mmHg 64%
    09:00 +14°C° 0 mm 4 m/S 686 mmHg 55%
    10:00 +19°C° 0 mm 4 m/S 687 mmHg 46%
    11:00 +22°C° 0 mm 4 m/S 687 mmHg 36%
    12:00 +24°C° 0 mm 3 m/S 687 mmHg 32%
    13:00 +25°C° 0 mm 3 m/S 686 mmHg 28%
    14:00 +27°C° 0 mm 3 m/S 685 mmHg 23%
    15:00 +26°C° 0 mm 3 m/S 685 mmHg 23%
    16:00 +26°C° 0 mm 3 m/S 685 mmHg 23%
    17:00 +26°C° 0 mm 3 m/S 684 mmHg 23%
    18:00 +22°C° 0 mm 3 m/S 684 mmHg 29%
    19:00 +19°C° 0 mm 3 m/S 684 mmHg 34%
    20:00 +16°C° 0 mm 3 m/S 684 mmHg 40%
    21:00 +16°C° 0 mm 3 m/S 684 mmHg 41%
    22:00 +15°C° 0 mm 2 m/S 684 mmHg 42%
    23:00 +15°C° 0 mm 2 m/S 684 mmHg 42%

    übermorgen, 8 Juni, Montag

    Zeit Temperatur Niederschläge Wind Luftdruck Luftfeuchtigkeit
    00:00 +13°C° 0 mm 3 m/S 684 mmHg 50%
    01:00 +13°C° 0 mm 3 m/S 684 mmHg 58%
    02:00 +12°C° 0 mm 3 m/S 684 mmHg 66%
    03:00 +12°C° 0 mm 3 m/S 683 mmHg 73%
    04:00 +11°C° 0 mm 3 m/S 683 mmHg 79%
    05:00 +10°C° 0 mm 3 m/S 683 mmHg 85%
    06:00 +11°C° 0 mm 3 m/S 684 mmHg 81%
    07:00 +11°C° 0 mm 3 m/S 684 mmHg 78%
    08:00 +12°C° 0 mm 3 m/S 684 mmHg 74%
    09:00 +16°C° 0 mm 3 m/S 685 mmHg 61%
    10:00 +20°C° 0 mm 3 m/S 686 mmHg 48%
    11:00 +24°C° 0 mm 3 m/S 686 mmHg 35%
    12:00 +25°C° 0 mm 3 m/S 685 mmHg 31%
    13:00 +27°C° 0 mm 3 m/S 685 mmHg 27%
    14:00 +28°C° 0 mm 2 m/S 684 mmHg 22%
    15:00 +28°C° 0 mm 2 m/S 684 mmHg 22%
    16:00 +27°C° 0 mm 2 m/S 684 mmHg 22%
    17:00 +27°C° 0 mm 2 m/S 683 mmHg 23%
    18:00 +24°C° 0 mm 2 m/S 683 mmHg 28%
    19:00 +20°C° 0 mm 2 m/S 683 mmHg 34%
    20:00 +17°C° 0 mm 2 m/S 682 mmHg 40%
    21:00 +16°C° 0 mm 2 m/S 683 mmHg 42%
    22:00 +15°C° 0 mm 2 m/S 683 mmHg 45%
    23:00 +15°C° 0 mm 2 m/S 683 mmHg 47%

    9 Juni, Dienstag

    Zeit Temperatur Niederschläge Wind Luftdruck Luftfeuchtigkeit
    00:00 +14°C° 0 mm 2 m/S 683 mmHg 47%
    01:00 +14°C° 0 mm 2 m/S 683 mmHg 48%
    02:00 +14°C° 0 mm 2 m/S 682 mmHg 48%
    03:00 +13°C° 0 mm 2 m/S 683 mmHg 49%
    04:00 +12°C° 0 mm 2 m/S 683 mmHg 50%
    05:00 +12°C° 0 mm 2 m/S 683 mmHg 52%
    06:00 +12°C° 0 mm 2 m/S 683 mmHg 52%
    07:00 +12°C° 0 mm 2 m/S 683 mmHg 52%
    08:00 +13°C° 0 mm 2 m/S 684 mmHg 53%
    09:00 +16°C° 0 mm 2 m/S 684 mmHg 44%
    10:00 +20°C° 0 mm 3 m/S 685 mmHg 35%
    11:00 +25°C° 0 mm 3 m/S 686 mmHg 26%
    12:00 +26°C° 0 mm 3 m/S 685 mmHg 23%
    13:00 +27°C° 0 mm 2 m/S 684 mmHg 21%
    14:00 +29°C° 0 mm 2 m/S 684 mmHg 18%
    15:00 +28°C° 0 mm 2 m/S 683 mmHg 19%
    16:00 +28°C° 0 mm 2 m/S 683 mmHg 19%
    17:00 +28°C° 0 mm 1 m/S 683 mmHg 19%
    18:00 +25°C° 0 mm 1 m/S 682 mmHg 24%
    19:00 +22°C° 0 mm 1 m/S 682 mmHg 29%
    20:00 +19°C° 0 mm 1 m/S 682 mmHg 34%
    21:00 +18°C° 0 mm 1 m/S 682 mmHg 36%
    22:00 +16°C° 0 mm 1 m/S 682 mmHg 39%
    23:00 +15°C° 0 mm 2 m/S 682 mmHg 42%

    10 Juni, Mittwoch

    Zeit Temperatur Niederschläge Wind Luftdruck Luftfeuchtigkeit
    00:00 +14°C° 0 mm 2 m/S 682 mmHg 43%
    01:00 +14°C° 0 mm 2 m/S 682 mmHg 44%
    02:00 +14°C° 0 mm 2 m/S 682 mmHg 46%
    03:00 +13°C° 0 mm 2 m/S 682 mmHg 47%
    04:00 +13°C° 0 mm 2 m/S 682 mmHg 48%
    05:00 +12°C° 0 mm 2 m/S 682 mmHg 49%
    06:00 +13°C° 0 mm 2 m/S 682 mmHg 48%
    07:00 +13°C° 0 mm 2 m/S 683 mmHg 46%
    08:00 +14°C° 0 mm 2 m/S 683 mmHg 45%
    09:00 +18°C° 0 mm 2 m/S 684 mmHg 37%
    10:00 +22°C° 0 mm 3 m/S 684 mmHg 29%
    11:00 +27°C° 0 mm 3 m/S 685 mmHg 22%
    12:00 +28°C° 0 mm 3 m/S 684 mmHg 20%
    13:00 +29°C° 0 mm 3 m/S 683 mmHg 18%
    14:00 +30°C° 0 mm 3 m/S 683 mmHg 16%
    15:00 +30°C° 0 mm 3 m/S 682 mmHg 17%
    16:00 +29°C° 0 mm 2 m/S 682 mmHg 17%
    17:00 +29°C° 0 mm 2 m/S 682 mmHg 18%
    18:00 +26°C° 0 mm 2 m/S 681 mmHg 22%
    19:00 +23°C° 0 mm 2 m/S 681 mmHg 27%
    20:00 +19°C° 0 mm 2 m/S 681 mmHg 32%
    21:00 +18°C° 0 mm 2 m/S 681 mmHg 33%
    22:00 +17°C° 0 mm 2 m/S 681 mmHg 35%
    23:00 +16°C° 0 mm 2 m/S 681 mmHg 37%

    11 Juni, Donnerstag

    Zeit Temperatur Niederschläge Wind Luftdruck Luftfeuchtigkeit
    00:00 +16°C° 0 mm 1 m/S 681 mmHg 39%
    01:00 +15°C° 0 mm 1 m/S 680 mmHg 41%
    02:00 +14°C° 0 mm 1 m/S 680 mmHg 43%
    03:00 +14°C° 0 mm 1 m/S 680 mmHg 45%
    04:00 +14°C° 0 mm 2 m/S 680 mmHg 48%
    05:00 +13°C° 0 mm 2 m/S 680 mmHg 50%
    06:00 +13°C° 0 mm 2 m/S 681 mmHg 51%
    07:00 +14°C° 0 mm 2 m/S 681 mmHg 52%
    08:00 +13°C° 0 mm 3 m/S 682 mmHg 53%
    09:00 +17°C° 0 mm 2 m/S 682 mmHg 44%
    10:00 +21°C° 0 mm 2 m/S 683 mmHg 35%
    11:00 +25°C° 0 mm 2 m/S 684 mmHg 26%
    12:00 +27°C° 0 mm 2 m/S 683 mmHg 24%
    13:00 +28°C° 0 mm 2 m/S 683 mmHg 22%
    14:00 +30°C° 0 mm 3 m/S 682 mmHg 19%
    15:00 +29°C° 0 mm 2 m/S 682 mmHg 19%
    16:00 +29°C° 0 mm 2 m/S 681 mmHg 19%
    17:00 +29°C° 0 mm 2 m/S 681 mmHg 19%
    18:00 +26°C° 0 mm 2 m/S 681 mmHg 23%
    19:00 +21°C° 0 mm 2 m/S 681 mmHg 28%
    20:00 +18°C° 0 mm 2 m/S 681 mmHg 32%
    21:00 +17°C° 0 mm 2 m/S 681 mmHg 33%
    22:00 +16°C° 0 mm 2 m/S 681 mmHg 35%
    23:00 +15°C° 0 mm 2 m/S 681 mmHg 36%
    Mehr zeigen